Wetbulb
46.14 42.62 39.50 41.87 43.31 43.86 43.03 41.37 40.79 45.25 47.25 43.91 43.70 42.72 44.88 53.50 55.09 55.38 55.65 56.82 60.26 61.45 63.22 64.75 64.34 66.18 67.23 67.43 67.39 66.76 66.33 65.04 64.54 62.53 60.90 59.97 59.02 59.16 59.50 60.10 60.23 58.59 58.72 57.35
43.89 40.15 44.69 46.49 46.91 45.43 44.38 42.05 42.00 44.66 47.10 44.09 43.80 44.13 48.00 53.00 54.47 56.14 56.50 58.31 59.32 60.40 61.88 62.74 62.67 65.33 65.59 66.12 65.89 65.42 66.03 65.86 64.98 64.39 63.09 61.77 60.44 60.22 59.36 59.25 58.41 58.68 57.21 54.03
41.92 44.15 47.82 46.99 44.94 44.71 42.20 41.21 41.88 42.36 45.65 44.81 43.36 41.44 51.87 56.36 58.27 57.74 60.32 60.27 60.31 60.74 60.82 59.84 61.24 63.57 64.90 63.90 65.44 64.99 63.65 63.68 63.56 63.48 63.20 62.14 60.90 60.06 57.91 57.58 57.02 55.85 54.75 53.25
42.76 46.29 46.34 44.69 44.97 45.36 40.09 45.60 45.89 44.61 42.23 38.09 42.17 36.36 42.62 53.42 54.63 56.57 57.81 58.50 58.44 59.10 59.44 58.97 60.77 62.25 63.38 63.27 62.31 61.65 62.01 62.71 63.28 63.14 62.17 60.90 59.46 57.19 55.19 54.42 52.33 51.82 52.54 52.96
44.38 43.80 43.79 43.72 44.77 46.89 44.19 47.57 45.53 44.97 41.24 38.40 39.91 37.41 38.24 51.48 52.61 54.89 55.68 56.33 57.96 58.17 58.51 57.80 59.00 61.41 62.19 61.16 59.88 58.67 58.19 58.55 59.35 58.74 59.28 57.61 53.49 51.64 50.89 48.56 48.42 48.97 48.71 50.56
46.22 48.80 47.51 46.48 48.11 47.67 48.65 46.07 42.82 40.70 38.33 34.28 37.71 37.95 37.50 45.05 52.05 54.19 55.90 55.79 57.31 60.75 60.28 59.91 60.71 60.93 59.16 58.79 57.85 56.65 55.81 54.50 54.23 53.67 53.35 52.34 50.90 49.23 48.19 46.99 46.57 45.92 46.49 46.82
42.71 43.53 46.76 49.54 45.21 46.13 43.91 38.92 33.68 33.18 33.21 32.98 39.11 37.43 40.77 45.33 50.40 57.54 56.83 55.03 58.50 60.02 59.56 59.23 58.75 59.13 57.78 56.25 55.41 54.64 53.55 52.00 52.01 51.81 51.13 50.88 49.82 48.41 47.19 45.73 45.26 44.50 44.79 44.84
36.96 36.39 43.86 48.02 45.76 43.34 42.02 40.05 34.46 30.06 30.37 33.86 39.59 36.54 41.97 52.26 54.16 58.16 57.79 56.98 58.89 57.98 59.43 60.05 58.73 57.23 55.95 55.25 54.76 53.29 51.86 50.50 50.31 50.01 49.08 48.69 48.11 47.59 46.59 45.87 45.71 45.55 44.32 44.55
36.74 38.84 46.47 47.72 47.64 46.56 42.01 38.84 41.68 36.81 35.09 33.91 36.33 41.53 50.86 54.03 56.68 57.78 56.96 56.53 56.20 56.09 57.21 58.22 56.93 55.83 54.75 54.07 53.44 52.32 51.27 49.82 50.05 49.70 48.23 47.85 47.15 46.67 46.40 45.85 44.87 44.32 44.25 46.86
41.33 37.64 45.35 46.72 46.75 45.79 44.45 45.43 37.93 35.72 30.67 28.91 34.01 38.04 43.36 48.18 51.58 53.60 54.62 55.27 54.84 55.15 55.71 56.67 56.21 54.89 54.91 54.18 53.48 52.47 51.05 50.33 50.17 49.12 48.08 47.34 46.82 46.43 46.24 45.09 44.55 44.57 45.16 45.34
41.61 39.62 42.64 43.20 41.58 41.40 40.84 39.49 39.66 38.47 36.16 31.91 29.90 34.79 43.81 50.02 52.79 53.59 55.42 55.57 54.98 54.72 55.59 56.45 55.63 55.85 55.42 54.28 52.96 51.34 50.49 50.31 49.27 48.92 47.30 46.72 45.85 46.32 45.30 44.74 45.52 45.34 44.99 44.60
42.90 38.08 36.64 40.74 45.55 45.90 43.39 42.15 40.84 35.59 35.03 35.79 34.70 35.79 46.58 52.61 54.15 55.72 54.92 55.24 54.80 55.60 55.56 55.91 55.34 54.03 53.49 52.87 51.52 51.51 50.03 49.65 48.79 48.28 47.15 46.16 45.70 46.31 45.33 45.03 45.33 45.55 44.77 44.38
42.25 37.10 33.50 36.41 39.71 43.01 41.84 43.47 41.85 39.90 37.64 35.94 35.48 37.62 49.27 52.72 53.29 54.43 53.99 54.48 54.74 54.73 54.79 54.83 54.98 53.65 53.34 52.50 51.04 50.05 49.56 48.98 48.04 47.95 46.63 45.70 45.96 46.49 45.64 45.94 45.36 45.60 44.51 44.35
49.29 38.53 37.77 34.11 38.15 40.95 39.91 43.68 42.59 40.85 34.87 36.80 37.58 40.92 45.32 49.75 51.13 52.63 53.58 54.47 54.68 54.85 55.16 54.87 54.02 53.53 53.13 52.66 51.33 49.90 47.94 47.59 47.25 46.89 45.54 45.56 46.38 45.68 45.06 45.73 46.22 44.98 44.74 44.25
42.32 37.56 39.72 41.48 43.64 44.87 44.00 44.61 43.39 40.47 40.97 38.67 42.60 41.69 44.51 49.63 51.75 53.02 54.36 54.78 54.59 54.70 54.81 54.45 54.02 53.52 52.48 50.57 49.45 48.30 47.01 46.57 44.88 45.50 45.52 45.19 46.45 45.28 45.22 46.17 45.46 45.20 45.50 45.67
42.00 36.42 38.99 38.96 43.81 44.57 42.95 44.65 45.42 44.21 42.92 42.85 43.09 42.13 46.62 50.29 52.75 53.23 54.11 54.36 54.34 54.68 54.65 54.94 55.05 53.59 51.74 49.84 48.15 47.73 46.33 45.34 46.59 45.62 45.24 45.58 45.65 46.48 45.73 44.28 44.86 44.69 44.44 44.06
38.68 36.57 36.12 33.34 41.85 43.20 39.73 43.42 44.85 45.00 44.52 45.15 41.70 45.01 51.96 51.20 53.00 53.35 53.96 55.13 55.06 55.47 55.40 55.41 54.22 53.21 52.04 49.45 49.00 46.82 45.85 46.42 45.23 45.35 46.51 47.67 46.90 46.19 44.98 44.64 45.02 43.06 42.10 41.63
38.47 36.26 37.65 33.88 39.10 33.06 43.46 47.62 47.44 46.70 46.99 46.69 47.03 49.39 53.02 53.16 53.90 54.62 56.30 55.86 56.14 56.45 56.00 55.16 53.85 52.85 50.19 48.28 47.22 46.46 46.44 45.02 45.30 45.25 46.77 46.36 45.71 44.92 44.26 43.38 42.74 41.76 41.05 40.97
43.83 36.83 34.58 33.18 34.55 40.39 44.16 47.36 45.99 43.92 44.29 49.93 49.65 51.04 52.90 53.38 53.50 51.81 55.76 57.58 57.39 56.85 55.83 54.65 53.11 50.19 49.03 48.23 47.03 45.68 44.56 44.56 46.47 46.58 45.24 45.53 45.06 44.44 44.20 43.04 41.21 41.47 40.69 40.32
40.96 40.81 38.25 34.25 34.66 32.83 41.78 48.96 52.46 50.64 41.78 49.83 51.79 51.26 52.32 53.77 48.65 50.77 54.83 55.83 54.87 54.23 52.73 51.36 50.67 49.44 47.98 45.19 44.64 43.32 43.60 45.38 45.45 45.09 45.51 45.34 44.77 44.96 43.69 41.76 41.56 40.22 39.73 40.45
35.16 36.94 35.09 34.53 32.90 38.15 46.36 51.33 52.26 42.00 43.17 51.69 52.68 53.18 53.42 52.80 51.70 53.02 54.80 53.49 52.99 51.84 50.23 50.05 50.15 47.97 45.92 43.56 43.43 44.55 44.46 43.64 44.58 45.24 45.16 45.08 44.93 43.77 42.97 41.53 40.63 40.29 39.46 40.78
36.87 34.99 35.53 35.32 32.74 32.72 49.89 50.40 46.32 47.34 49.60 51.72 51.95 53.06 52.16 52.21 52.76 52.84 51.92 50.58 50.25 48.97 49.51 48.82 46.84 44.85 42.79 44.91 44.50 43.30 42.35 43.89 44.82 45.08 46.14 45.31 43.79 43.57 44.39 40.00 39.26 39.54 39.68 39.39
37.10 41.44 38.94 40.01 38.86 45.90 49.80 49.66 50.70 51.98 51.98 53.05 52.93 53.45 54.18 52.43 51.58 51.94 50.47 50.03 49.64 49.17 48.46 48.07 45.36 43.71 43.87 43.90 43.55 42.29 43.33 44.52 45.51 44.66 43.61 43.40 43.68 41.82 40.59 39.12 39.37 40.17 39.42 37.79
43.59 47.94 42.61 41.73 46.38 48.15 50.31 52.60 53.59 54.89 53.90 54.49 55.32 55.10 54.43 52.07 51.79 50.88 50.13 50.31 50.32 49.09 47.41 46.42 44.62 43.38 42.50 43.73 44.43 44.37 44.55 45.91 44.74 42.98 43.30 42.82 41.54 40.90 38.90 39.21 39.51 38.45 37.56 37.18
39.21 42.45 44.26 44.79 48.07 49.99 51.25 52.29 53.55 55.23 56.05 56.12 56.51 55.85 54.21 53.10 52.27 51.75 51.11 51.07 49.66 47.61 45.74 45.24 43.91 43.20 43.05 44.29 45.77 45.31 46.00 45.62 43.63 43.23 43.15 42.91 40.20 38.75 37.91 37.57 38.50 38.06 36.83 38.36
42.94 43.20 43.45 43.17 49.95 49.82 48.76 52.85 54.74 55.30 55.70 56.35 55.78 55.15 55.87 55.58 54.37 53.62 50.83 49.08 47.65 46.01 44.52 43.33 42.80 42.98 43.18 44.95 45.76 45.73 46.01 44.86 44.18 43.08 42.27 41.53 40.80 39.47 36.81 36.66 38.75 39.24 38.96 39.68
MSLP
1010.34 1011.13 1011.56 1011.72 1011.86 1011.69 1011.80 1011.75 1011.50 1010.09 1009.25 1009.53 1008.59 1008.18 1007.58 1008.23 1008.78 1009.29 1009.66 1010.06 1010.35 1011.29 1011.89 1012.49 1012.39 1013.00 1013.08 1012.83 1013.07 1013.51 1013.97 1014.83 1015.47 1016.22 1016.93 1017.67 1018.18 1018.47 1018.77 1018.67 1018.55 1019.02 1019.15 1019.08
1010.69 1010.70 1010.87 1011.09 1011.31 1011.47 1011.49 1011.42 1010.94 1010.05 1009.13 1009.35 1008.52 1008.51 1007.92 1008.41 1008.56 1008.65 1009.47 1009.83 1010.19 1011.48 1012.61 1013.08 1013.34 1013.47 1013.79 1013.95 1014.10 1014.35 1014.80 1015.35 1015.90 1016.42 1016.90 1017.67 1018.29 1018.42 1018.77 1018.81 1018.64 1019.07 1019.22 1019.33
1010.61 1010.31 1010.19 1010.78 1010.94 1011.23 1011.21 1011.20 1010.58 1010.60 1009.55 1009.24 1009.08 1009.49 1009.29 1009.21 1009.26 1009.51 1010.40 1010.51 1011.01 1011.40 1012.22 1013.12 1013.94 1014.26 1014.38 1014.63 1014.89 1015.19 1015.66 1016.16 1016.42 1016.78 1017.18 1017.93 1018.48 1018.72 1019.20 1019.09 1019.27 1019.19 1019.26 1019.41
1010.32 1009.73 1009.82 1010.19 1010.46 1010.78 1010.89 1010.14 1010.41 1010.51 1010.60 1010.18 1010.00 1010.86 1010.53 1010.33 1010.31 1010.30 1010.83 1011.31 1011.96 1012.67 1013.52 1013.69 1014.22 1014.83 1015.02 1015.31 1015.38 1015.80 1016.18 1016.42 1016.63 1016.83 1017.13 1017.68 1018.41 1019.10 1019.40 1019.50 1019.63 1019.57 1019.40 1019.79
1009.67 1009.38 1009.40 1009.56 1009.44 1010.00 1009.88 1009.84 1010.19 1010.28 1010.63 1010.71 1010.92 1011.47 1011.20 1011.18 1011.11 1010.85 1010.93 1011.67 1012.43 1012.92 1013.58 1014.30 1014.86 1015.38 1015.68 1015.83 1016.20 1016.29 1016.65 1016.89 1017.03 1017.11 1017.33 1018.03 1018.70 1019.40 1019.68 1019.93 1019.89 1020.31 1020.34 1020.04
1009.28 1008.85 1008.82 1008.67 1008.60 1009.23 1009.20 1009.71 1010.33 1011.29 1011.43 1011.76 1011.45 1011.74 1011.61 1011.38 1010.62 1010.71 1011.01 1011.51 1012.33 1013.13 1013.86 1014.72 1015.46 1016.09 1016.36 1016.30 1016.24 1017.06 1017.18 1017.33 1017.46 1017.77 1018.09 1018.54 1019.37 1019.90 1020.18 1020.59 1020.95 1020.97 1020.74 1020.36
1009.50 1008.93 1008.57 1008.35 1008.36 1008.49 1009.19 1010.46 1011.47 1012.09 1012.55 1012.61 1011.70 1012.05 1010.81 1010.09 1009.68 1009.54 1010.20 1011.00 1011.94 1012.95 1014.12 1015.02 1015.75 1016.29 1016.46 1016.79 1017.40 1017.70 1017.52 1017.88 1017.98 1018.17 1018.64 1019.24 1019.72 1020.19 1020.95 1021.29 1021.27 1021.04 1020.51 1020.56
1009.91 1009.01 1008.09 1007.97 1008.05 1008.48 1009.03 1010.22 1011.47 1012.31 1013.03 1012.62 1011.93 1011.33 1010.12 1010.04 1009.24 1009.42 1010.50 1011.98 1012.94 1013.52 1014.31 1015.22 1015.83 1016.47 1017.22 1017.64 1017.61 1018.10 1018.18 1018.43 1018.67 1019.03 1019.68 1020.03 1020.50 1020.75 1020.91 1020.67 1020.59 1020.95 1021.26 1021.34
1009.64 1008.99 1007.61 1007.27 1007.28 1007.88 1008.67 1009.64 1010.06 1011.50 1012.83 1012.68 1011.79 1010.79 1010.34 1010.13 1009.78 1010.39 1011.39 1012.56 1013.68 1014.34 1014.93 1015.58 1016.25 1016.85 1017.72 1018.19 1018.19 1018.65 1018.53 1019.07 1019.39 1019.75 1020.11 1020.39 1020.44 1020.22 1020.46 1020.91 1021.27 1021.46 1021.39 1021.20
1009.13 1009.05 1007.80 1007.08 1007.21 1007.54 1007.89 1008.76 1010.14 1011.68 1012.57 1013.01 1012.03 1011.10 1010.45 1010.53 1010.65 1011.23 1011.72 1012.42 1013.56 1014.31 1014.88 1015.50 1016.33 1017.42 1017.74 1017.49 1017.67 1018.46 1018.84 1019.50 1019.92 1020.18 1020.07 1019.93 1020.23 1020.59 1020.95 1021.43 1021.46 1021.35 1021.26 1021.17
1009.08 1009.50 1007.52 1007.79 1007.59 1007.56 1008.13 1008.72 1010.06 1011.17 1011.91 1012.20 1011.96 1010.97 1008.62 1008.91 1009.62 1010.02 1011.05 1012.00 1012.85 1013.72 1014.47 1015.34 1016.00 1016.60 1017.18 1017.31 1017.78 1018.12 1018.88 1019.33 1019.91 1019.94 1020.09 1020.39 1020.88 1020.83 1021.34 1021.35 1021.26 1021.25 1021.23 1021.21
1009.51 1009.88 1009.05 1008.16 1007.22 1007.23 1007.48 1008.00 1009.09 1010.84 1011.41 1011.59 1010.85 1008.96 1007.67 1007.71 1008.23 1009.63 1010.88 1011.66 1012.33 1012.89 1014.09 1015.06 1015.96 1016.75 1017.15 1017.60 1018.13 1018.29 1018.57 1018.81 1019.52 1019.99 1020.53 1020.90 1020.86 1020.93 1021.20 1021.22 1021.18 1021.13 1021.22 1021.01
1009.89 1010.50 1010.37 1008.91 1007.81 1007.61 1007.53 1007.61 1008.20 1009.27 1010.05 1010.47 1010.57 1008.47 1007.60 1007.52 1008.66 1009.50 1010.32 1011.06 1011.83 1012.92 1014.08 1014.93 1015.67 1016.25 1016.69 1017.05 1017.67 1018.44 1018.70 1019.06 1019.56 1020.11 1020.65 1020.85 1020.76 1020.98 1021.07 1021.05 1021.00 1021.03 1021.08 1020.92
1010.43 1011.03 1010.86 1010.05 1009.24 1008.51 1007.50 1007.03 1007.31 1008.15 1009.37 1009.25 1008.48 1008.09 1007.94 1008.26 1008.45 1009.19 1009.86 1010.44 1011.27 1012.45 1013.43 1014.63 1015.61 1016.01 1016.47 1017.06 1017.47 1018.33 1018.85 1019.24 1019.75 1020.18 1020.59 1020.75 1020.74 1020.76 1020.76 1020.78 1020.81 1020.83 1020.92 1020.84
1011.34 1011.35 1010.76 1009.89 1009.25 1008.20 1007.28 1006.68 1006.63 1007.04 1007.20 1008.09 1007.20 1007.38 1006.82 1007.07 1007.54 1007.82 1007.95 1010.17 1011.59 1012.46 1013.46 1014.21 1014.82 1015.72 1016.69 1017.09 1017.85 1018.39 1019.11 1019.59 1019.86 1020.19 1020.42 1020.54 1020.48 1020.49 1020.58 1020.67 1020.63 1020.54 1020.48 1020.32
1012.63 1011.92 1011.18 1010.13 1008.88 1007.93 1006.84 1005.91 1005.71 1005.80 1005.92 1006.10 1006.20 1006.27 1005.97 1006.39 1007.48 1008.27 1008.54 1009.58 1010.79 1011.70 1012.86 1013.68 1014.47 1015.42 1016.38 1017.20 1017.86 1018.42 1019.08 1019.57 1019.74 1020.04 1020.15 1020.23 1020.24 1020.21 1020.29 1020.35 1020.27 1020.22 1020.06 1020.00
1013.84 1012.74 1011.97 1010.44 1009.30 1008.05 1006.40 1004.26 1004.44 1004.69 1004.57 1004.80 1005.24 1005.34 1006.07 1006.81 1006.81 1007.21 1007.98 1008.67 1009.45 1010.29 1011.74 1013.34 1014.08 1015.00 1015.92 1016.85 1017.66 1018.52 1019.07 1019.32 1019.70 1019.89 1019.90 1019.79 1019.82 1019.91 1019.95 1019.98 1019.97 1020.00 1019.92 1019.77
1013.33 1013.02 1012.42 1011.24 1010.07 1008.32 1005.06 1003.65 1003.01 1003.63 1003.48 1003.64 1004.04 1004.61 1004.99 1005.64 1006.01 1006.75 1007.33 1007.73 1009.24 1010.49 1011.82 1012.99 1013.83 1014.95 1015.95 1016.97 1017.90 1018.62 1019.01 1019.33 1019.53 1019.62 1019.55 1019.55 1019.62 1019.71 1019.72 1019.79 1019.76 1019.73 1019.61 1019.36
1012.57 1012.82 1012.31 1011.70 1010.47 1007.67 1004.92 1003.38 1003.22 1003.20 1003.03 1002.99 1003.43 1004.21 1005.25 1005.97 1007.02 1007.87 1007.91 1008.48 1009.02 1010.00 1011.33 1012.61 1013.68 1014.98 1016.08 1017.07 1017.96 1018.54 1019.14 1019.26 1019.26 1019.24 1019.35 1019.41 1019.49 1019.62 1019.59 1019.65 1019.61 1019.46 1019.36 1019.09
1010.81 1011.42 1011.86 1011.46 1010.20 1008.00 1004.32 1003.21 1002.40 1002.99 1003.00 1002.99 1003.46 1004.24 1005.31 1006.29 1007.43 1006.97 1007.54 1008.55 1009.77 1010.59 1011.80 1012.88 1014.10 1015.40 1016.56 1017.56 1018.05 1018.49 1018.91 1019.10 1019.12 1019.15 1019.19 1019.21 1019.29 1019.33 1019.55 1019.49 1019.35 1019.09 1019.01 1018.85
1011.44 1011.55 1011.27 1010.62 1009.70 1007.15 1004.83 1003.89 1003.46 1003.45 1001.99 1002.80 1003.30 1003.93 1005.11 1005.60 1005.45 1005.84 1007.41 1008.98 1010.13 1011.15 1012.42 1013.70 1014.80 1015.95 1017.00 1017.74 1018.03 1018.50 1018.74 1019.02 1018.99 1018.98 1019.04 1019.05 1019.10 1019.20 1019.16 1019.18 1019.06 1018.82 1018.66 1018.43
1011.66 1011.49 1010.70 1009.87 1009.11 1006.90 1004.20 1004.06 1003.86 1002.82 1002.46 1002.59 1003.25 1003.87 1004.99 1005.71 1006.63 1006.91 1008.05 1009.52 1010.67 1011.73 1012.73 1013.73 1015.06 1016.79 1017.47 1017.89 1018.12 1018.57 1018.93 1018.78 1018.95 1018.92 1018.93 1019.14 1019.13 1019.09 1019.05 1019.02 1018.70 1018.71 1018.61 1018.42
1011.01 1010.30 1009.69 1009.39 1007.11 1005.31 1004.06 1003.09 1002.47 1002.43 1002.95 1002.91 1003.08 1004.14 1004.90 1005.98 1007.23 1008.10 1009.31 1010.47 1011.67 1012.35 1013.46 1014.39 1014.67 1016.69 1017.28 1017.83 1018.35 1018.62 1018.83 1018.84 1018.94 1019.07 1019.21 1019.25 1019.12 1019.02 1018.97 1019.08 1019.02 1018.77 1018.54 1018.43
1011.12 1010.13 1009.27 1008.56 1005.87 1005.10 1004.43 1003.00 1002.55 1002.28 1002.16 1002.56 1002.76 1003.72 1004.89 1006.17 1007.40 1008.67 1010.08 1011.67 1013.01 1014.12 1014.05 1014.34 1015.68 1016.59 1017.43 1018.11 1018.20 1018.37 1018.75 1018.79 1019.05 1019.24 1019.29 1019.32 1019.41 1019.29 1019.17 1019.06 1018.91 1018.80 1018.57 1018.60
1012.63 1011.71 1009.51 1008.35 1006.38 1004.86 1003.86 1003.37 1002.38 1001.84 1002.11 1002.77 1003.53 1003.91 1005.05 1005.83 1007.60 1008.19 1009.90 1011.17 1013.08 1014.08 1015.71 1014.95 1016.01 1016.74 1017.48 1017.76 1018.10 1018.37 1018.78 1019.03 1019.24 1019.31 1019.36 1019.44 1019.55 1019.50 1019.37 1019.08 1018.78 1018.68 1018.40 1018.33
1011.27 1010.38 1009.47 1007.01 1006.01 1006.21 1003.86 1003.15 1002.59 1002.01 1001.98 1002.58 1003.22 1004.54 1005.65 1006.06 1007.20 1008.30 1009.74 1010.14 1012.11 1014.46 1015.34 1015.56 1016.59 1016.92 1017.57 1017.57 1018.23 1018.60 1018.84 1019.04 1019.24 1019.36 1019.48 1019.57 1019.67 1019.63 1019.41 1019.09 1018.76 1018.41 1018.15 1017.91
Wind_Speed
2 4 6 7 6 4 1 1 3 11 11 4 8 12 10 3 7 9 9 10 12 9 6 4 9 7 8 10 10 6 11 8 7 4 5 4 4 3 2 3 5 3 2 4
3 6 8 4 3 3 3 4 9 10 8 4 9 9 4 5 6 14 13 12 12 10 8 6 7 10 11 9 9 9 9 8 5 3 4 4 3 2 1 1 4 2 3 3
8 7 4 4 3 3 3 4 7 7 7 4 5 6 6 5 5 3 4 2 4 15 17 10 8 9 10 10 8 8 7 7 6 6 6 6 4 4 1 2 1 1 3 4
6 7 7 4 6 6 6 9 10 6 2 2 3 6 6 4 2 2 1 4 5 6 7 9 9 10 8 8 7 7 7 6 6 6 7 6 3 2 1 2 3 4 6 3
7 2 4 6 10 8 12 6 8 7 5 3 2 3 6 4 5 7 5 3 5 6 8 9 9 11 7 7 7 7 7 7 6 6 6 5 6 4 2 3 6 7 5 6
7 2 6 8 5 8 7 3 3 4 2 3 4 6 5 7 10 5 3 4 7 8 9 9 9 9 8 6 8 6 7 7 7 7 7 8 8 6 5 4 3 2 2 3
6 5 3 3 7 2 4 6 4 5 4 6 4 3 10 3 8 15 16 10 7 8 10 12 11 8 6 7 6 5 7 7 7 8 8 7 7 7 6 3 2 2 4 4
6 9 7 4 7 8 6 9 7 7 4 7 4 6 6 7 12 4 8 9 6 8 7 8 7 6 6 6 6 6 7 7 7 8 7 6 6 4 4 3 4 4 2 2
6 7 5 6 6 9 2 4 6 6 3 3 4 4 2 6 10 11 12 11 9 7 7 7 6 5 5 5 6 6 7 7 6 6 6 5 5 6 6 5 2 0 1 3
5 6 7 9 3 3 7 5 3 4 5 4 5 3 6 4 7 7 13 14 11 10 10 10 8 7 7 8 8 7 7 7 5 5 5 5 6 5 4 2 2 0 3 3
5 6 18 3 6 8 1 1 2 4 5 8 3 8 9 13 16 20 16 13 15 14 13 11 11 10 8 7 8 8 7 8 5 5 4 5 3 4 3 3 2 3 2 5
1 4 8 14 12 5 6 9 7 6 6 3 5 9 4 13 19 14 14 15 14 15 13 12 10 8 7 7 6 6 6 7 6 5 4 4 3 3 3 4 4 4 5 5
2 2 4 12 6 3 5 7 5 3 4 7 6 8 3 8 14 14 17 15 15 13 12 9 7 7 7 8 7 6 6 6 6 5 5 3 3 4 4 5 5 5 6 7
4 4 8 8 7 5 5 7 7 8 4 4 9 7 4 8 14 15 17 17 17 14 15 12 10 11 10 9 9 7 5 6 6 6 5 5 6 6 5 5 6 6 5 7
3 6 6 7 9 10 17 7 7 9 8 8 12 9 11 16 18 23 25 16 16 17 16 15 15 12 9 8 7 7 6 6 5 6 6 7 6 5 4 5 6 6 6 6
6 5 3 7 8 6 8 15 18 8 4 6 6 8 5 5 8 12 20 20 20 19 17 17 14 14 12 10 9 8 7 7 6 6 6 5 4 4 5 5 5 5 5 5
4 3 2 7 4 9 7 12 16 11 6 9 7 10 5 3 15 17 19 22 24 22 19 16 15 15 12 12 11 10 8 6 6 5 4 3 4 4 4 4 3 5 6 4
5 3 3 5 3 7 10 6 8 18 11 8 4 6 12 9 8 8 15 22 20 16 16 14 14 11 9 8 7 7 6 6 5 4 2 3 3 3 3 3 4 5 4 5
17 5 3 4 5 10 17 4 2 6 11 10 10 5 6 9 7 2 7 13 15 15 12 11 11 10 10 11 8 8 6 6 5 3 4 3 3 3 3 4 6 4 4 4
16 11 8 3 6 8 5 5 7 2 11 4 6 10 15 14 7 8 12 9 8 11 11 13 12 12 12 7 8 8 7 5 4 4 3 3 3 3 4 5 6 4 2 5
1 2 12 7 6 11 7 6 4 7 14 8 11 13 17 12 4 9 16 11 12 13 15 13 12 12 10 7 7 7 7 6 4 3 1 1 2 4 4 5 3 4 5 5
7 3 6 3 5 17 6 4 11 7 2 5 6 8 9 10 10 14 16 17 17 18 17 15 14 10 7 7 7 7 6 4 3 1 2 3 3 4 3 4 5 5 5 4
8 11 7 9 10 7 7 8 5 5 5 5 9 6 14 16 13 14 14 15 13 15 13 11 15 10 6 7 6 7 5 4 3 3 2 3 4 4 4 4 6 4 4 3
7 5 6 1 19 15 10 7 6 7 6 5 8 18 18 19 17 18 16 14 11 8 12 14 12 10 8 5 5 5 5 3 4 1 1 3 4 6 5 3 2 3 3 1
8 9 6 9 14 6 10 9 6 8 10 12 12 17 20 23 19 22 18 17 12 9 6 10 10 8 7 7 5 5 5 4 3 1 2 4 3 4 5 4 4 3 3 4
6 5 9 11 4 10 8 6 5 11 14 17 19 18 16 19 17 17 15 16 17 12 8 8 6 8 7 7 5 5 4 4 3 1 3 3 4 4 4 4 4 4 5 6
Wind_Direction
182 104 211 229 204 203 248 200 278 283 274 257 253 254 287 111 138 172 194 185 198 155 144 101 75 63 61 53 80 98 116 105 102 92 101 82 109 114 82 98 95 99 117 92
11 244 225 212 201 221 279 304 286 283 269 136 299 344 29 161 217 199 192 205 175 140 132 79 73 77 73 79 78 73 91 100 106 101 103 120 140 103 111 140 90 92 105 120
185 226 118 173 257 260 256 230 275 242 322 298 338 351 352 25 23 73 28 324 176 164 155 124 98 97 95 86 83 91 90 103 107 109 101 88 81 72 85 62 88 43 40 50
221 249 232 189 232 165 274 197 246 268 288 225 56 275 315 330 16 334 144 132 107 110 89 120 118 111 110 103 89 82 86 90 96 118 124 126 128 137 55 59 34 31 13 17
233 205 186 200 228 150 239 144 223 242 211 106 335 72 280 355 296 254 244 196 132 126 128 133 118 125 112 96 104 90 90 79 77 75 86 103 88 85 90 66 52 45 33 41
225 255 165 218 249 170 260 287 76 69 104 52 247 137 267 211 208 236 256 211 148 124 113 115 122 120 111 103 79 97 99 78 76 84 80 94 104 98 70 49 62 14 7 21
340 269 251 214 304 346 116 73 323 339 352 215 207 98 231 226 226 202 200 188 150 118 125 142 143 124 117 122 129 115 109 97 88 81 78 91 100 98 108 129 132 61 20 14
199 304 198 181 184 212 193 158 159 222 216 243 260 234 254 270 245 204 124 133 114 101 109 128 126 138 144 147 139 125 111 103 93 93 100 100 121 136 139 100 55 45 26 320
163 266 272 177 189 147 250 200 207 126 354 54 232 286 288 13 60 111 129 128 144 138 143 149 153 150 161 161 125 127 105 94 103 115 125 128 127 86 78 75 76 99 311 302
264 276 236 257 149 249 166 178 21 349 154 240 284 262 236 222 171 159 161 165 161 155 160 169 161 169 184 157 129 126 120 132 136 135 121 85 74 89 107 145 173 300 302 305
151 155 264 51 183 216 294 194 58 140 141 175 217 259 218 200 187 184 186 171 169 171 177 175 171 180 171 141 143 139 140 135 124 98 80 102 151 128 176 205 223 248 269 279
318 175 255 243 247 244 207 211 158 139 264 244 174 258 216 201 191 176 169 180 180 181 172 176 171 163 146 135 144 137 137 123 140 134 143 180 171 167 218 232 235 242 251 269
300 341 354 341 347 26 211 211 177 129 90 197 184 261 347 131 152 172 179 184 183 172 168 156 164 165 163 160 152 153 152 145 147 156 170 189 200 215 224 234 243 243 260 264
138 171 178 208 234 293 248 215 187 159 144 222 218 241 236 164 163 174 186 189 183 172 171 165 171 177 170 168 156 159 145 155 164 170 184 202 219 221 227 241 253 250 269 273
169 216 191 245 252 267 247 232 192 181 206 187 252 206 230 189 182 186 187 166 170 176 177 174 179 172 174 157 150 145 153 166 172 177 192 219 222 243 258 267 266 263 263 261
324 283 293 281 284 336 280 243 236 230 174 240 247 256 218 171 125 159 179 174 177 174 180 181 177 168 170 163 159 153 163 182 171 185 199 215 232 253 243 261 257 264 270 283
256 212 6 270 335 318 292 228 227 226 191 173 208 229 144 167 179 183 180 180 178 180 173 183 174 176 166 162 160 167 172 163 180 185 187 232 250 215 220 242 260 274 275 289
237 165 179 268 4 249 250 312 209 220 217 195 165 180 179 186 193 181 184 176 176 168 171 172 170 159 142 139 135 142 151 170 162 169 200 184 167 206 236 252 271 279 267 273
206 174 232 204 196 284 293 287 318 173 249 196 194 171 140 113 84 40 181 184 176 174 160 156 142 134 135 143 146 144 152 148 151 147 163 186 205 241 258 281 286 271 278 299
183 203 191 169 193 237 305 222 204 148 291 217 155 166 150 146 149 219 175 138 116 111 127 129 124 123 130 142 144 135 142 148 150 171 202 217 250 256 274 283 285 261 272 280
3 287 206 219 232 264 230 276 357 176 246 187 181 175 166 181 205 127 120 104 116 121 119 115 120 131 137 142 136 130 136 154 190 192 211 298 312 283 275 293 285 288 304 298
227 209 224 141 180 257 180 136 178 226 302 166 168 160 150 119 114 115 118 124 125 126 124 124 121 124 134 133 123 126 148 180 174 131 31 355 327 320 327 307 310 333 321 316
241 216 240 185 215 239 241 215 236 163 180 225 143 138 137 128 121 114 115 114 121 125 121 123 125 129 125 132 138 134 183 152 119 82 3 326 326 325 344 337 336 336 342 340
318 317 233 89 250 247 257 246 200 191 158 169 143 144 142 128 125 116 111 110 112 120 135 129 125 127 128 157 144 141 154 135 117 96 359 341 344 330 347 340 297 307 324 24
257 300 281 278 286 277 266 255 229 148 122 123 134 141 143 134 138 134 138 130 119 126 151 124 132 133 145 146 141 149 157 152 138 126 322 333 337 327 327 310 279 303 246 191
208 269 250 252 271 292 255 275 246 159 150 147 140 140 154 144 144 145 141 131 133 144 144 114 133 134 148 133 145 160 169 170 162 313 340 317 324 328 309 316 324 303 241 263